This is the latest recevied weather packets stored in our database for station/object DL9BGG-13. If no packets are shown the sender has not sent any weather packets the latest 1 day(s).
| Time | Temp. | Humidity | Pressure | Rain* | Wind** | Luminosity | Snow |
|---|---|---|---|---|---|---|---|
| 1778008699 | 10° C | 81% | 1056.1 hPa | 0 mm | 3.58 m/s, 22° | - | - |
| 1778008633 | 10° C | 81% | 1056.3 hPa | 0 mm | 5.81 m/s, 22° | - | - |
| 1778008559 | 10° C | 80% | 1056.2 hPa | 0 mm | 3.13 m/s, 337° | - | - |
| 1778008492 | 10° C | 80% | 1056.2 hPa | 0 mm | 1.79 m/s, 22° | - | - |
| 1778008406 | 10° C | 81% | 1056.2 hPa | 0 mm | 3.13 m/s, 22° | - | - |
| 1778008340 | 10° C | 81% | 1056.2 hPa | 0 mm | 2.68 m/s, 337° | - | - |
| 1778008273 | 10° C | 81% | 1056.2 hPa | 0 mm | 4.47 m/s, 22° | - | - |
| 1778008199 | 10° C | 81% | 1056.2 hPa | 0 mm | 4.47 m/s, 22° | - | - |
| 1778008109 | 10° C | 81% | 1056.2 hPa | 0 mm | 3.13 m/s, 45° | - | - |
| 1778008035 | 10° C | 82% | 1056.2 hPa | 0 mm | 2.24 m/s, 0° | - | - |
| 1778007968 | 10° C | 82% | 1056.1 hPa | 0 mm | 3.58 m/s, 45° | - | - |
| 1778007895 | 10° C | 82% | 1056.1 hPa | 0 mm | 4.47 m/s, 45° | - | - |
| 1778007831 | 10° C | 82% | 1056.2 hPa | 0 mm | 3.58 m/s, 45° | - | - |
| 1778007765 | 10° C | 82% | 1056.1 hPa | 0 mm | 2.68 m/s, 45° | - | - |
| 1778007681 | 10° C | 82% | 1056.1 hPa | 0 mm | 3.58 m/s, 45° | - | - |
| 1778007607 | 10° C | 82% | 1056.1 hPa | 0 mm | 4.47 m/s, 45° | - | - |
| 1778007534 | 10° C | 82% | 1056.1 hPa | 0 mm | 2.68 m/s, 22° | - | - |
| 1778007466 | 10° C | 82% | 1056.1 hPa | 0 mm | 3.13 m/s, 0° | - | - |
| 1778007387 | 10° C | 82% | 1056.1 hPa | 0 mm | 4.02 m/s, 45° | - | - |
| 1778007319 | 10° C | 82% | 1056.1 hPa | 0 mm | 3.13 m/s, 0° | - | - |
| 1778007246 | 10° C | 82% | 1056 hPa | 0 mm | 4.92 m/s, 45° | - | - |
| 1778007179 | 10° C | 82% | 1056.1 hPa | 0 mm | 1.34 m/s, 45° | - | - |
| 1778007090 | 10° C | 82% | 1056 hPa | 0 mm | 2.68 m/s, 0° | - | - |
| 1778007017 | 10° C | 82% | 1056 hPa | 0 mm | 3.58 m/s, 22° | - | - |
| 1778006952 | 10° C | 82% | 1056.1 hPa | 0 mm | 2.68 m/s, 0° | - | - |
* Rain latest hour (hover to see other rain measurements)
** Current wind speed in m/s (hover to see current wind gust speed)